TimeEST,TemperatureF,Dew PointF,Humidity,Sea Level PressureIn,VisibilityMPH,Wind Direction,Wind SpeedMPH,Gust SpeedMPH,PrecipitationIn,Events,Conditions,WindDirDegrees,DateUTC
12:16 AM,1.4,-2.9,82,30.33,10.0,NNE,6.9,-,N/A,,Clear,30,2013-12-24 05:16:00
12:36 AM,0.5,-3.8,82,30.33,10.0,NNE,8.1,-,N/A,,Clear,30,2013-12-24 05:36:00
12:56 AM,0.5,-3.8,82,30.33,10.0,NNE,8.1,-,N/A,,Clear,30,2013-12-24 05:56:00
1:16 AM,0.3,-3.6,83,30.33,10.0,NNE,6.9,-,N/A,,Clear,30,2013-12-24 06:16:00
1:36 AM,0.1,-4.0,83,30.33,10.0,NNE,8.1,-,N/A,,Clear,30,2013-12-24 06:36:00
1:56 AM,-0.4,-4.4,83,30.34,10.0,NNE,9.2,-,N/A,,Clear,30,2013-12-24 06:56:00
2:16 AM,-0.6,-4.9,82,30.34,10.0,NNE,9.2,-,N/A,,Clear,30,2013-12-24 07:16:00
2:36 AM,-0.8,-4.9,83,30.34,10.0,NNE,6.9,-,N/A,,Clear,30,2013-12-24 07:36:00
2:56 AM,-1.3,-5.1,84,30.35,10.0,NNE,9.2,-,N/A,,Clear,30,2013-12-24 07:56:00
3:16 AM,-1.5,-5.4,83,30.36,10.0,NNE,6.9,-,N/A,,Clear,30,2013-12-24 08:16:00
3:36 AM,-2.2,-5.4,86,30.37,10.0,NNE,5.8,-,N/A,,Clear,30,2013-12-24 08:36:00
3:55 AM,-2.4,-5.8,85,30.37,10.0,NNE,6.9,-,N/A,,Clear,30,2013-12-24 08:55:00
4:16 AM,-2.7,-6.2,85,30.37,10.0,NNE,6.9,-,N/A,,Clear,20,2013-12-24 09:16:00
4:36 AM,-3.1,-6.7,85,30.37,10.0,NNE,6.9,-,N/A,,Clear,20,2013-12-24 09:36:00
4:56 AM,-3.6,-7.4,84,30.38,10.0,NNE,4.6,-,N/A,,Clear,20,2013-12-24 09:56:00
5:16 AM,-3.8,-7.6,84,30.39,10.0,North,4.6,-,N/A,,Clear,10,2013-12-24 10:16:00
5:36 AM,-4.2,-8.0,84,30.38,10.0,NNE,5.8,-,N/A,,Clear,30,2013-12-24 10:36:00
5:56 AM,-4.0,-7.6,85,30.38,10.0,NNE,5.8,-,N/A,,Clear,30,2013-12-24 10:56:00
6:16 AM,-4.4,-8.1,84,30.39,10.0,NNE,4.6,-,N/A,,Clear,30,2013-12-24 11:16:00
6:36 AM,-4.4,-8.0,84,30.40,10.0,NNE,5.8,-,N/A,,Clear,30,2013-12-24 11:36:00
6:56 AM,-4.7,-8.1,85,30.41,10.0,NNE,5.8,-,N/A,,Clear,20,2013-12-24 11:56:00
7:16 AM,-4.7,-8.5,84,30.41,10.0,NNE,4.6,-,N/A,,Clear,20,2013-12-24 12:16:00
7:36 AM,-5.1,-8.9,84,30.41,10.0,NNE,5.8,-,N/A,,Clear,20,2013-12-24 12:36:00
7:56 AM,-5.4,-9.2,84,30.42,10.0,NNE,4.6,-,N/A,,Clear,20,2013-12-24 12:56:00
8:16 AM,-6.3,-9.6,86,30.42,10.0,NNE,4.6,-,N/A,,Clear,30,2013-12-24 13:16:00
8:36 AM,-6.5,-9.8,86,30.42,10.0,NNE,3.5,-,N/A,,Clear,30,2013-12-24 13:36:00
8:56 AM,-7.4,-11.0,84,30.43,10.0,NE,4.6,-,N/A,,Clear,40,2013-12-24 13:56:00
9:16 AM,-4.0,-7.8,84,30.43,10.0,Calm,Calm,-,N/A,,Clear,0,2013-12-24 14:16:00
9:36 AM,-1.7,-6.0,82,30.43,10.0,NNE,3.5,-,N/A,,Clear,20,2013-12-24 14:36:00
9:56 AM,-0.4,-5.4,79,30.44,10.0,NNE,3.5,-,N/A,,Clear,30,2013-12-24 14:56:00
10:16 AM,0.3,-5.1,78,30.45,10.0,Calm,Calm,-,N/A,,Clear,0,2013-12-24 15:16:00
10:35 AM,0.5,-5.6,75,30.45,10.0,Calm,Calm,-,N/A,,Clear,0,2013-12-24 15:35:00
10:56 AM,1.2,-5.3,74,30.45,10.0,Calm,Calm,-,N/A,,Clear,0,2013-12-24 15:56:00
11:16 AM,1.8,-5.3,72,30.45,10.0,Calm,Calm,-,N/A,,Clear,0,2013-12-24 16:16:00
11:35 AM,2.3,-4.9,72,30.44,10.0,NNE,4.6,-,N/A,,Clear,20,2013-12-24 16:35:00
11:56 AM,2.7,-4.5,72,30.44,10.0,NNW,3.5,-,N/A,,Clear,340,2013-12-24 16:56:00
12:16 PM,1.9,-6.0,69,30.43,10.0,Calm,Calm,-,N/A,,Clear,0,2013-12-24 17:16:00
12:35 PM,3.7,-6.3,63,30.43,10.0,Calm,Calm,-,N/A,,Clear,0,2013-12-24 17:35:00
12:56 PM,3.9,-6.0,64,30.43,10.0,NNE,3.5,-,N/A,,Clear,30,2013-12-24 17:56:00
1:16 PM,5.0,-5.6,62,30.43,10.0,Calm,Calm,-,N/A,,Clear,0,2013-12-24 18:16:00
1:36 PM,4.5,-6.2,62,30.43,10.0,Calm,Calm,-,N/A,,Clear,0,2013-12-24 18:36:00
1:56 PM,4.6,-5.4,63,30.43,10.0,West,3.5,-,N/A,,Clear,270,2013-12-24 18:56:00
2:15 PM,3.7,-4.0,70,30.43,10.0,Calm,Calm,-,N/A,,Clear,0,2013-12-24 19:15:00
2:36 PM,4.1,-3.6,70,30.44,10.0,Calm,Calm,-,N/A,,Clear,0,2013-12-24 19:36:00
2:56 PM,4.5,-3.5,70,30.44,10.0,Calm,Calm,-,N/A,,Clear,0,2013-12-24 19:56:00
3:15 PM,5.0,-3.6,68,30.44,10.0,Calm,Calm,-,N/A,,Clear,0,2013-12-24 20:15:00
3:36 PM,5.0,-4.4,65,30.44,10.0,Calm,Calm,-,N/A,,Clear,0,2013-12-24 20:36:00
3:56 PM,7.3,-3.8,60,30.44,10.0,Calm,Calm,-,N/A,,Clear,0,2013-12-24 20:56:00
4:15 PM,7.5,-4.0,59,30.44,10.0,Calm,Calm,-,N/A,,Clear,0,2013-12-24 21:15:00
4:36 PM,4.6,-4.4,66,30.43,10.0,Calm,Calm,-,N/A,,Clear,0,2013-12-24 21:36:00
4:56 PM,2.8,-3.6,74,30.43,10.0,East,3.5,-,N/A,,Clear,100,2013-12-24 21:56:00
5:15 PM,1.0,-4.2,79,30.44,10.0,Calm,Calm,-,N/A,,Clear,0,2013-12-24 22:15:00
5:36 PM,-2.2,-6.3,83,30.44,10.0,Calm,Calm,-,N/A,,Clear,0,2013-12-24 22:36:00
5:56 PM,-2.4,-6.2,84,30.44,10.0,ESE,3.5,-,N/A,,Clear,110,2013-12-24 22:56:00
6:15 PM,-1.8,-5.8,83,30.44,10.0,SSE,3.5,-,N/A,,Clear,150,2013-12-24 23:15:00
6:36 PM,-2.9,-6.3,85,30.44,10.0,South,4.6,-,N/A,,Clear,170,2013-12-24 23:36:00
6:55 PM,-2.4,-5.1,88,30.44,10.0,SSE,5.8,-,N/A,,Clear,150,2013-12-24 23:55:00
7:16 PM,3.9,0.1,84,30.43,10.0,SSE,8.1,-,N/A,,Clear,150,2013-12-25 00:16:00
7:36 PM,4.5,-0.8,79,30.43,10.0,South,5.8,-,N/A,,Clear,170,2013-12-25 00:36:00
7:50 PM,3.2,-2.0,79,30.43,10.0,South,5.8,-,N/A,,Clear,170,2013-12-25 00:50:00
9:25 PM,6.8,1.4,79,30.42,10.0,SSE,8.1,-,N/A,,Clear,160,2013-12-25 02:25:00
10:25 PM,6.8,1.4,79,30.40,10.0,SSE,12.7,18.4,N/A,,Scattered Clouds,150,2013-12-25 03:25:00